Regional Weather Roundup
Issued by NWS

Home | Current Version | Previous Version | Graphics & Text | Print | Product List | Glossary On
Versions: 1 2 3 4 5 6 7 8 9 10 11 12 13 14 15 16 17 18 19 20 21 22 23 24 25 26 27 28 29 30 31 32 33 34 35 36 37 38 39 40 41 42 43 44 45 46 47 48 49 50
000
ASUS43 KDMX 042007
RWRIA

WEATHER ROUNDUP FOR IOWA
NATIONAL WEATHER SERVICE DES MOINES IA
300 PM CDT FRI SEP 04 2015

NOTE: "FAIR" INDICATES FEW OR NO CLOUDS BELOW 12,000 FEET WITH NO
SIGNIFICANT WEATHER AND/OR OBSTRUCTIONS TO VISIBILITY.

* - THESE STATIONS ARE NOT NWS STATIONS...THUS NOT UNDER NWS
QUALITY CONTROL.  THEY ALSO DO NOT REPORT WEATHER SUCH
AS PRECIPITATION OR FOG.

IAZ001>003-012>014-020>022-031>034-043>046-042100-
   NORTHWEST IOWA

CITY           SKY/WX    TMP DP  RH WIND       PRES   REMARKS
CARROLL *      SUNNY     84  73  70 S10       29.93R HX  91
CHEROKEE *     RAIN      81  73  78 SW5       29.90S HX  85
DENISON *      SUNNY     81  73  78 CALM      29.90S HX  85
LE MARS *      SUNNY     84  72  65 SE13G20   29.88F HX  89
ORANGE CITY *  SUNNY     81  72  74 S9        29.89F HX  84
SHELDON *      MOSUNNY   79  72  78 SE12G18   29.88F HX  82
SIOUX CITY     PTSUNNY   85  73  67 SE15      29.85F HX  91
SPENCER        CLOUDY    82  71  69 S10       29.92R HX  86
STORM LAKE *   SUNNY     82  73  74 S10       29.94S HX  88
$$

IAZ055>058-069>071-079>083-090>094-042100-
   SOUTHWEST IOWA

CITY           SKY/WX    TMP DP  RH WIND       PRES   REMARKS
ATLANTIC *     SUNNY     86  72  62 S10       29.92S HX  92
AUDUBON *      SUNNY     86  73  66 S10G21    29.94S HX  93
CLARINDA *     SUNNY     90  72  55 S14       29.93S HX  96
COUNCIL BLFS * SUNNY     84  73  70 SE13      29.90F HX  91
CRESTON *      SUNNY     88  72  58 S15       29.96S HX  94
LAMONI         MOSUNNY   90  71  53 S10       29.96F HX  96
RED OAK *      SUNNY     86  70  58 S12G18    29.92S HX  90
SHENANDOAH *   SUNNY     90  70  51 S9G18     29.91S HX  95
$$

IAZ047>049-059>061-072>074-084-042100-
   CENTRAL IOWA

CITY           SKY/WX    TMP DP  RH WIND       PRES   REMARKS
AMES           MOSUNNY   88  70  55 S13G20    29.94S HX  93
ANKENY *       SUNNY     90  72  55 S8G16     29.93F HX  96
CHARITON *     SUNNY     90  72  55 S10       29.96S HX  96
DES MOINES     PTSUNNY   89  69  51 S14       29.93F HX  93
GRINNELL*      MOSUNNY   88  70  55 S7        29.97F HX  92
KNOXVILLE *    SUNNY     88  72  58 S9        29.95S HX  94
MARSHALLTOWN   MOSUNNY   87  73  62 S10       29.95S HX  94
PELLA *        PTSUNNY   91  75  59 S6        29.96S HX 102
PERRY *          N/A     90  72  55 S7        29.93S HX  96
$$

IAZ004>006-015-016-023>025-035-036-042100-
   NORTH CENTRAL IOWA

CITY           SKY/WX    TMP DP  RH WIND       PRES   REMARKS
ALGONA *       SUNNY     86  73  66 S8G16     29.92F HX  93
CLARION *      SUNNY     88  72  58 S13       29.94S HX  94
ESTHERVILLE    PTSUNNY   82  72  71 SE10      29.92S HX  87
FORT DODGE *   MOSUNNY   88  70  55 S13       29.94S HX  92
MASON CITY     MOSUNNY   88  74  63 S12       29.96S HX  96
FOREST CITY *  SUNNY     88  70  55 S12       29.94S HX  92
IOWA FALLS *     N/A     90  72  55 S10       29.96S HX  96
$$

IAZ007>011-017>019-026>030-037>042-050>054-066-042100-
   NORTHEAST IOWA

CITY           SKY/WX    TMP DP  RH WIND       PRES   REMARKS
CEDAR RAPIDS   MOSUNNY   89  72  56 S7        29.97F HX  96
CHARLES CITY * SUNNY     88  73  62 S10       29.96S HX  96
CLINTON *      MOSUNNY   88  73  62 SW6       30.01S HX  96
DECORAH *      MOSUNNY   84  72  65 SE8G15    29.97F HX  89
DUBUQUE        MOSUNNY   85  72  65 S6        30.01S HX  91
MONTICELLO *   SUNNY     90  70  51 SW5G12    29.98S HX  95
OELWEIN *      MOSUNNY   88  73  62 S9        29.98S HX  96
WATERLOO       SUNNY     89  71  55 S13G18    29.94F HX  95
$$

IAZ064-065-067-068-078-042100-
   EAST CENTRAL IOWA

CITY           SKY/WX    TMP DP  RH WIND       PRES   REMARKS
DAVENPORT      MOSUNNY   90  71  53 W3        29.99S HX  96
IOWA CITY      SUNNY     90  68  48 SW7       29.98S HX  94
MT. PLEASANT * SUNNY     95  59  30 S9        29.97F HX  94
MUSCATINE *    MOSUNNY   93  68  43 SW6       29.97S HX  97
QUAD CITIES    MOSUNNY   91  69  48 S5        29.97F HX  96
$$

IAZ062-063-075>077-085>089-095>099-042100-
   SOUTHEAST IOWA

CITY           SKY/WX    TMP DP  RH WIND       PRES   REMARKS
BURLINGTON     MOSUNNY   91  68  46 S8        29.98S HX  95
FAIRFIELD *    SUNNY     91  66  43 SW7       29.97F HX  94
FORT MADISON * SUNNY     91  70  49 SW3       29.98F HX  97
KEOKUK *       MOSUNNY   91  66  43 S10       29.97S HX  94
OSKALOOSA *      N/A     90  68  48 S8        29.97S HX  93
CENTERVILLE *  SUNNY     86  72  62 S7        29.99F HX  92
OTTUMWA        SUNNY     88  72  58 S5        29.95F HX  94
WASHINGTON *     N/A    N/A N/A N/A MISG        N/A
$$

ABBREVIATIONS USED IN REMARKS
   TC - TEMPERATURES IN CELSIUS
  WCI - WIND CHILL INDEX
   HX - HEAT INDEX
  VSB - VISIBILITY
$$



USA.gov is the U.S. government's official web portal to all federal, state and local government web resources and services.